Terminal Aerodrome Forecast
Issued by NWS Charleston, WV

Current Version | Previous Version | Graphics & Text | Print | Product List | Glossary On
Versions: 1 2 3 4 5 6 7 8 9 10 11 12 13 14 15 16 17 18 19 20 21 22 23
000
FTUS41 KRLX 181700
TAFEKN
TAF
KEKN 181738Z 1818/1918 34009KT P6SM OVC018
     FM181900 28006KT P6SM BKN020
     FM182200 28006KT P6SM SCT020 BKN080
     FM190400 28004KT 5SM -SHSN BKN020=

USA.gov is the U.S. government's official web portal to all federal, state and local government web resources and services.